Litchfield, MN

1:52 AM CDT on October 18, 2017 (GMT -0500)
Litchfield Municipal

Weather History for KLJF - May, 2012

Change the Weather History Date:

Friday, May 4, 2012

  Actual Average Record
Temperature  
Mean Temperature 59 °F -  
Max Temperature 68 °F 69 °F 93 °F (1952)
Min Temperature 50 °F 43 °F 22 °F (1967)
Degree Days  
Heating Degree Days 6    
Growing Degree Days 9 (Base 50)    
Moisture  
Dew Point 53 °F    
Average Humidity 84    
Maximum Humidity 100    
Minimum Humidity 60    
Precipitation  
Precipitation 0.13 in - - ()
Sea Level Pressure  
Sea Level Pressure 29.95 in    
Wind  
Wind Speed 9 mph (ENE)    
Max Wind Speed 23 mph    
Max Gust Speed 31 mph    
Visibility 10 miles    
Events Rain    
Averages and records for this station are not official NWS values.
T = Trace of Precipitation, MM = Missing Value Source: NWS Daily Summary

Daily Weather History Graph

Daily Weather History Graph

Search for Another Location

Airport or City:

Trip Planner

Search our weather history database for the weather conditions in past years. The results will help you decide how hot, cold, wet, or windy it might be!

Date:

Astronomy

May. 04, 2012 Rise Set
Actual Time 6:02 AM CDT 8:28 PM CDT
Civil Twilight 5:29 AM CDT 9:01 PM CDT
Nautical Twilight 4:48 AM CDT 9:42 PM CDT
Astronomical Twilight 4:01 AM CDT 10:29 PM CDT
Moon 7:05 PM CDT (5/4) 4:47 AM CDT (5/4)
Length of Visible Light 15h 32m
Length of Day
14h 26m
Waxing Gibbous, 97% of the Moon is Illuminated
May 4
Waxing Gibbous
May 5
Full
May 12
Last Quarter
May 20
New
May 28
First Quarter

Hourly Weather History & Observations

Time (CDT) Temp. Dew Point Humidity Pressure Visibility Wind Dir Wind Speed Gust Speed Precip Events Conditions
12:13 AM 60.8 °F 55.4 °F 82% 29.94 in 10.0 mi North 3.5 mph - N/A   Clear
12:33 AM 60.8 °F 55.4 °F 82% 29.94 in 10.0 mi NE 4.6 mph - N/A   Scattered Clouds
12:52 AM 60.8 °F 55.4 °F 82% 29.94 in 10.0 mi NE 5.8 mph - N/A   Clear
1:13 AM 59.0 °F 55.4 °F 88% 29.94 in 10.0 mi NNE 6.9 mph - N/A   Clear
1:32 AM 59.0 °F 55.4 °F 88% 29.94 in 10.0 mi NE 5.8 mph - N/A   Clear
1:53 AM 59.0 °F 53.6 °F 82% 29.94 in 10.0 mi NE 9.2 mph - N/A   Clear
2:13 AM 57.2 °F 53.6 °F 88% 29.95 in 10.0 mi ENE 9.2 mph - N/A   Clear
2:33 AM 57.2 °F 53.6 °F 88% 29.95 in 10.0 mi ENE 8.1 mph - N/A   Clear
2:53 AM 55.4 °F 53.6 °F 94% 29.95 in 10.0 mi ENE 6.9 mph - N/A   Clear
3:13 AM 55.4 °F 53.6 °F 94% 29.95 in 10.0 mi NE 8.1 mph - N/A   Clear
3:32 AM 55.4 °F 53.6 °F 94% 29.96 in 10.0 mi ENE 6.9 mph - N/A   Clear
3:53 AM 55.4 °F 53.6 °F 94% 29.95 in 10.0 mi NE 9.2 mph - N/A   Clear
4:13 AM 53.6 °F 51.8 °F 94% 29.95 in 10.0 mi ENE 8.1 mph - N/A   Clear
4:33 AM 53.6 °F 51.8 °F 94% 29.96 in 10.0 mi ENE 9.2 mph - N/A   Scattered Clouds
4:53 AM 51.8 °F 51.8 °F 100% 29.97 in 10.0 mi ENE 6.9 mph - N/A   Scattered Clouds
5:13 AM 51.8 °F 50.0 °F 94% 29.98 in 10.0 mi ENE 8.1 mph - N/A   Scattered Clouds
5:33 AM 51.8 °F 50.0 °F 94% 29.99 in 10.0 mi ENE 8.1 mph - N/A   Scattered Clouds
5:53 AM 51.8 °F 50.0 °F 94% 29.98 in 10.0 mi ENE 8.1 mph - N/A   Scattered Clouds
6:13 AM 50.0 °F 48.2 °F 94% 29.99 in 10.0 mi ENE 9.2 mph - N/A   Scattered Clouds
6:32 AM 50.0 °F 48.2 °F 94% 29.99 in 10.0 mi ENE 10.4 mph - N/A   Clear
6:53 AM 50.0 °F 48.2 °F 94% 29.99 in 10.0 mi ENE 9.2 mph - N/A   Clear
7:13 AM 50.0 °F 48.2 °F 94% 29.98 in 10.0 mi ENE 9.2 mph - N/A   Clear
7:33 AM 51.8 °F 50.0 °F 94% 29.98 in 10.0 mi ENE 10.4 mph - N/A   Clear
7:53 AM 51.8 °F 50.0 °F 94% 29.99 in 10.0 mi East 12.7 mph - N/A   Clear
8:13 AM 53.6 °F 50.0 °F 88% 29.98 in 10.0 mi East 12.7 mph - N/A   Clear
8:33 AM 53.6 °F 51.8 °F 94% 29.99 in 10.0 mi ENE 11.5 mph - N/A   Clear
8:53 AM 55.4 °F 51.8 °F 88% 29.97 in 10.0 mi ENE 15.0 mph 19.6 mph N/A   Clear
9:13 AM 55.4 °F 51.8 °F 88% 29.98 in 10.0 mi ENE 13.8 mph - N/A   Clear
9:33 AM 57.2 °F 51.8 °F 82% 29.98 in 10.0 mi ENE 12.7 mph 16.1 mph N/A   Clear
9:53 AM 57.2 °F 51.8 °F 82% 29.98 in 10.0 mi ENE 12.7 mph 19.6 mph N/A   Clear
10:13 AM 60.8 °F 53.6 °F 77% 29.98 in 10.0 mi ENE 12.7 mph - N/A   Clear
10:33 AM 60.8 °F 53.6 °F 77% 29.97 in 10.0 mi NE 13.8 mph 20.7 mph N/A   Clear
10:53 AM 62.6 °F 53.6 °F 72% 29.98 in 10.0 mi ENE 11.5 mph 17.3 mph N/A   Clear
11:13 AM 62.6 °F 53.6 °F 72% 29.97 in 10.0 mi ENE 16.1 mph 19.6 mph N/A   Clear
11:33 AM 64.4 °F 53.6 °F 68% 29.97 in 10.0 mi ENE 17.3 mph - N/A   Clear
11:53 AM 64.4 °F 53.6 °F 68% 29.97 in 10.0 mi East 16.1 mph 20.7 mph N/A   Clear
12:13 PM 64.4 °F 53.6 °F 68% 29.96 in 10.0 mi ENE 13.8 mph 18.4 mph N/A   Clear
12:33 PM 66.2 °F 53.6 °F 64% 29.95 in 10.0 mi ENE 15.0 mph 21.9 mph N/A   Scattered Clouds
12:53 PM 66.2 °F 53.6 °F 64% 29.94 in 10.0 mi ENE 17.3 mph 25.3 mph N/A   Scattered Clouds
1:13 PM 68.0 °F 53.6 °F 60% 29.94 in 10.0 mi ENE 13.8 mph - N/A   Clear
1:33 PM 66.2 °F 53.6 °F 64% 29.95 in 10.0 mi ENE 15.0 mph 23.0 mph N/A   Clear
1:53 PM 66.2 °F 53.6 °F 64% 29.96 in 10.0 mi NE 12.7 mph 18.4 mph N/A   Scattered Clouds
2:13 PM 66.2 °F 53.6 °F 64% 29.95 in 10.0 mi ENE 12.7 mph 20.7 mph N/A   Scattered Clouds
2:33 PM 66.2 °F 53.6 °F 64% 29.95 in 10.0 mi NE 11.5 mph 17.3 mph N/A   Scattered Clouds
2:53 PM 64.4 °F 53.6 °F 68% 29.94 in 10.0 mi NE 13.8 mph 17.3 mph N/A   Scattered Clouds
3:12 PM 64.4 °F 53.6 °F 68% 29.95 in 10.0 mi ENE 12.7 mph - N/A   Mostly Cloudy
3:33 PM 64.4 °F 53.6 °F 68% 29.96 in 10.0 mi NE 9.2 mph - N/A   Overcast
3:53 PM 62.6 °F 55.4 °F 77% 29.96 in 7.0 mi NE 8.1 mph - 0.01 in Rain Rain
4:13 PM 60.8 °F 55.4 °F 82% 29.96 in 10.0 mi NNE 9.2 mph - 0.03 in Rain Light Rain
4:33 PM 60.8 °F 55.4 °F 82% 29.96 in 10.0 mi North 8.1 mph - 0.04 in Rain Light Rain
4:52 PM 59.0 °F 55.4 °F 88% 29.95 in 10.0 mi NNE 10.4 mph - 0.02 in Rain Rain
5:13 PM 57.2 °F 55.4 °F 94% 29.94 in 10.0 mi ENE 9.2 mph - 0.05 in Rain Light Rain
5:33 PM 57.2 °F 55.4 °F 94% 29.88 in 10.0 mi East 23.0 mph 27.6 mph 0.08 in Rain Light Rain
5:53 PM 57.2 °F 55.4 °F 94% 29.87 in 10.0 mi ESE 17.3 mph 31.1 mph N/A Rain Light Rain
6:13 PM 57.2 °F 55.4 °F 94% 29.90 in 10.0 mi ENE 11.5 mph 16.1 mph N/A   Clear
6:33 PM 57.2 °F 55.4 °F 94% 29.88 in 10.0 mi ENE 12.7 mph 19.6 mph N/A   Clear
7:13 PM 57.2 °F 53.6 °F 88% 29.89 in 10.0 mi ENE 15.0 mph - N/A   Clear
7:33 PM 57.2 °F 53.6 °F 88% 29.89 in 10.0 mi NE 13.8 mph 19.6 mph N/A   Clear
7:52 PM 57.2 °F 53.6 °F 88% 29.90 in 10.0 mi NE 12.7 mph 16.1 mph N/A   Clear
8:13 PM 55.4 °F 51.8 °F 88% 29.90 in 10.0 mi ENE 10.4 mph 17.3 mph N/A   Clear
8:33 PM 55.4 °F 51.8 °F 88% 29.91 in 10.0 mi NE 10.4 mph - N/A   Clear
8:53 PM 55.4 °F 51.8 °F 88% 29.92 in 10.0 mi NE 8.1 mph - N/A   Clear
9:13 PM 55.4 °F 51.8 °F 88% 29.93 in 10.0 mi NE 8.1 mph - N/A   Clear
9:33 PM 53.6 °F 51.8 °F 94% 29.94 in 10.0 mi NE 6.9 mph - N/A   Clear
9:52 PM 53.6 °F 50.0 °F 88% 29.95 in 10.0 mi NE 6.9 mph - N/A   Scattered Clouds
10:13 PM 53.6 °F 50.0 °F 88% 29.96 in 10.0 mi NE 6.9 mph - N/A   Overcast
10:33 PM 53.6 °F 50.0 °F 88% 29.96 in 10.0 mi NE 9.2 mph - N/A   Overcast
10:53 PM 53.6 °F 48.2 °F 82% 29.96 in 10.0 mi NE 8.1 mph - N/A   Overcast
11:13 PM 51.8 °F 48.2 °F 88% 29.96 in 10.0 mi ENE 10.4 mph - N/A   Overcast
11:33 PM 51.8 °F 48.2 °F 88% 29.96 in 10.0 mi ENE 9.2 mph - N/A   Overcast
11:52 PM 51.8 °F 48.2 °F 88% 29.95 in 10.0 mi ENE 8.1 mph - N/A   Overcast